GFSWCAN_500_rhum_180.txt.gz
RH
60 54 44 34 29 23 20 20 23 24 23 15 14 14 15 16 21 25 27 29 33 40 36 49 62 91 92 100 100 96 100 100 100 100 95 100 93 78 62 60 93 88 100 88 94 97 66 81 92 89 100 89 31 49
26 20 16 16 17 20 24 28 33 42 62 57 40 29 41 38 36 36 37 49 54 65 48 62 42 42 58 74 89 100 98 100 100 100 100 100 100 100 100 95 100 69 83 97 83 86 76 47 44 61 48 56 49 53
18 21 20 19 21 25 25 26 28 31 49 76 69 66 73 61 45 37 40 69 90 93 78 74 78 80 41 50 80 80 88 96 100 100 100 100 100 89 95 76 76 87 100 100 72 44 28 22 33 43 49 87 31 54
15 15 16 15 16 16 16 21 28 48 43 74 100 98 100 95 61 64 57 71 100 100 91 62 83 57 43 30 68 79 90 92 89 100 95 99 100 95 66 100 96 100 100 99 50 28 27 22 30 53 60 54 63 83
18 17 15 11 10 5 7 13 17 21 21 64 100 100 99 98 90 91 78 88 100 100 98 63 85 100 44 26 76 87 94 93 85 83 90 100 100 97 81 63 67 100 97 49 36 24 10 7 14 18 42 70 89 88
22 17 12 9 9 9 5 6 8 13 34 100 100 100 98 94 100 74 67 79 71 76 73 64 69 79 38 79 82 77 80 99 91 79 94 100 100 73 79 100 100 90 46 28 17 14 10 9 13 24 60 65 92 77
17 15 13 17 8 20 7 6 11 50 100 100 100 100 93 89 54 49 60 90 100 100 83 62 66 89 82 74 87 100 100 100 100 92 98 100 100 98 98 100 96 56 41 28 20 15 9 12 13 19 46 60 74 74
20 12 46 59 8 6 8 13 90 97 71 95 97 87 70 40 46 60 70 60 57 95 99 44 81 100 100 100 100 100 100 100 97 100 98 99 93 88 75 81 47 45 32 20 19 15 16 30 22 20 35 39 57 58
27 8 43 65 95 98 100 100 100 100 100 89 64 36 30 42 59 67 62 75 80 68 38 47 81 98 100 100 100 100 100 100 94 93 93 100 100 92 75 45 38 27 15 16 37 69 81 51 34 36 40 41 43 41
23 9 15 55 67 67 63 56 47 38 22 13 21 39 58 50 85 99 77 54 30 27 29 76 100 100 100 100 100 100 100 100 100 98 93 96 96 64 44 32 18 25 31 86 91 100 97 56 52 48 42 42 47 40
32 35 54 58 52 54 56 54 55 59 62 73 87 94 98 66 68 54 33 28 26 41 98 100 100 100 100 100 99 100 100 99 95 97 80 62 27 24 24 35 28 50 84 100 100 100 79 60 57 52 47 46 42 40
32 29 36 39 46 57 77 89 92 100 99 98 100 100 100 100 100 100 100 100 100 100 100 100 100 100 97 99 100 100 100 97 93 62 53 24 36 53 64 53 58 100 98 96 97 99 100 100 100 95 89 68 72 82
43 40 45 51 54 60 83 90 86 89 93 100 100 100 100 100 100 100 100 100 100 82 100 100 100 100 100 98 100 100 95 59 31 21 17 56 56 97 98 88 94 100 100 100 98 97 100 98 80 78 77 90 98 94
85 47 54 62 64 67 76 79 82 89 100 100 100 100 100 100 100 100 100 100 100 100 100 100 100 100 100 100 99 94 64 29 19 18 42 100 90 92 88 92 97 100 100 100 100 100 100 100 100 100 100 100 100 100
76 86 94 94 93 90 82 85 81 80 83 99 99 100 100 100 100 100 100 100 100 100 100 100 100 98 91 66 52 41 28 21 18 36 98 100 99 94 85 95 100 92 100 100 99 95 95 96 97 100 100 100 100 98
21 22 25 36 55 82 93 98 99 100 99 98 97 99 97 100 100 100 100 100 100 99 97 100 94 84 75 58 43 46 36 38 65 100 100 100 91 90 95 95 94 84 76 89 100 100 100 100 93 90 86 78 72 70
20 23 23 21 21 23 27 30 38 47 47 48 46 56 62 74 79 79 80 81 84 87 83 77 71 68 87 87 78 88 96 100 94 82 82 99 92 100 100 100 100 89 80 69 65 78 100 96 82 80 76 79 82 85
24 25 34 39 34 19 16 18 22 29 24 18 15 15 14 20 27 39 46 51 55 54 54 50 48 41 46 77 94 84 84 83 76 82 90 100 87 98 100 98 100 100 100 100 94 78 71 83 82 78 66 58 75 82
24 29 33 37 38 37 31 16 13 13 15 15 13 12 12 13 14 20 26 28 28 27 30 35 35 40 60 85 84 76 70 83 95 100 100 95 99 100 100 100 100 100 100 100 99 98 98 96 95 90 65 62 81 88
40 34 22 19 17 18 24 34 35 32 34 43 29 26 25 26 32 46 53 60 69 71 78 81 97 94 93 95 98 94 87 83 81 82 82 100 100 100 99 94 92 93 91 94 98 100 100 100 100 83 75 79 88 94
52 46 54 50 54 49 42 35 33 28 24 26 31 36 38 47 51 55 64 72 72 77 83 85 92 96 98 99 98 98 97 94 90 79 76 84 90 96 92 92 89 89 84 77 92 98 100 100 94 90 91 93 94 100
39 42 37 44 44 50 56 46 64 61 57 57 57 56 49 38 32 29 30 40 56 71 77 83 84 91 96 94 96 93 93 100 98 95 86 83 90 84 77 75 78 77 69 64 66 82 94 76 76 90 96 98 100 100
66 62 61 46 38 39 40 25 27 28 31 46 57 60 64 60 71 64 62 60 45 33 27 29 38 53 65 75 84 88 94 95 94 94 88 89 89 91 92 82 73 74 69 64 60 59 89 91 42 39 65 76 78 84
95 95 83 76 74 68 64 50 36 24 17 16 14 18 35 54 68 62 67 86 69 52 56 72 62 38 26 22 23 33 49 64 72 76 78 81 83 88 89 96 98 95 86 83 77 73 85 100 93 50 32 31 31 34
98 95 92 92 90 83 83 76 57 43 35 28 24 19 16 16 16 32 66 58 71 78 56 64 93 87 80 68 52 36 24 17 17 23 36 49 55 58 64 80 90 97 96 94 97 99 100 100 100 94 50 39 34 35
95 94 88 82 69 60 39 35 30 28 25 25 23 21 19 16 14 14 16 24 40 71 92 86 84 97 100 93 87 80 70 57 43 29 20 16 17 23 34 46 55 61 73 89 98 100 100 100 100 100 100 98 97 84
92 79 56 39 33 29 25 21 19 18 16 15 15 15 14 13 12 12 13 17 30 48 66 84 94 85 88 99 100 93 80 75 70 57 39 24 20 17 16 18 25 34 44 52 61 79 98 100 100 100 100 100 100 100
61 41 36 30 26 25 25 24 22 19 16 14 12 11 11 11 11 11 10 10 11 15 24 39 53 59 51 53 56 67 67 66 70 64 57 34 17 16 16 17 19 20 26 37 45 47 51 66 92 100 100 100 100 100
41 33 30 29 28 27 27 26 24 22 19 16 14 12 11 10 10 10 10 10 12 14 15 22 25 29 29 34 50 61 57 56 66 82 73 42 20 14 13 16 20 27 34 49 65 77 77 59 42 49 98 100 100 100
35 33 34 34 34 34 32 31 27 22 20 17 14 12 12 11 11 11 11 11 11 13 14 16 21 33 53 74 93 96 78 69 59 65 77 43 19 14 13 15 20 28 41 60 73 83 100 100 82 44 49 100 100 100
37 41 41 40 41 40 38 33 27 22 16 15 13 12 12 12 12 12 12 13 14 15 19 24 38 49 62 74 84 96 100 98 91 85 80 66 26 13 13 15 18 27 32 39 57 92 100 100 100 74 48 79 100 100
50 50 46 42 38 39 35 29 24 17 15 13 12 12 12 11 10 13 17 24 39 44 38 44 63 83 83 84 83 82 86 94 97 91 76 48 21 13 13 16 24 31 40 44 48 81 100 100 100 86 92 100 100 100
55 50 46 42 39 36 31 23 17 14 13 12 11 10 10 12 19 22 35 53 56 48 48 79 100 99 94 98 100 100 96 88 84 64 34 18 13 13 17 26 35 44 45 48 69 100 100 100 100 88 100 100 100 100

GFSWCAN_500_rhum_183.txt.gz
RH
99 96 92 89 82 76 67 54 44 35 28 23 20 20 30 50 52 38 31 33 28 25 24 31 27 26 36 42 53 71 100 96 96 100 100 100 99 88 75 80 64 70 89 93 100 100 100 100 96 92 89 100 100 100
69 54 45 44 43 36 27 23 17 12 11 11 16 26 41 74 73 52 56 53 40 33 34 34 38 57 58 48 49 94 90 99 82 100 100 98 82 60 86 60 74 64 99 100 99 87 98 100 99 67 43 39 39 77
34 23 17 13 11 11 10 10 11 11 11 14 21 56 59 69 98 82 73 89 65 56 50 42 54 72 82 86 94 40 89 96 100 100 99 93 82 100 100 100 98 97 97 86 84 95 100 89 59 22 18 16 21 40
9 9 10 14 13 11 12 13 13 14 12 12 16 53 82 98 94 79 100 84 68 62 57 46 51 57 69 68 62 48 42 87 81 98 74 59 83 95 100 95 100 100 100 100 100 100 97 34 24 12 9 8 8 18
11 11 11 9 7 8 8 6 6 7 9 13 54 33 50 51 80 100 92 86 88 69 45 46 71 71 62 62 49 25 43 88 80 78 61 63 85 100 100 100 100 100 87 100 100 83 48 21 12 11 9 10 9 19
11 11 9 11 7 4 4 5 15 44 46 14 58 42 64 99 100 95 79 79 58 43 42 59 61 56 68 39 24 41 72 91 82 81 62 56 78 100 100 100 100 89 71 70 49 33 22 17 13 14 11 8 9 18
12 10 8 14 18 4 3 6 32 47 13 58 100 100 100 100 93 81 71 49 49 66 57 68 70 99 76 87 83 80 84 88 91 100 77 87 100 91 85 100 94 76 61 48 32 26 24 21 15 14 11 10 14 25
11 13 28 46 37 20 8 7 9 16 60 100 100 100 100 97 81 52 27 33 46 38 49 71 100 94 100 100 100 100 98 97 100 100 86 100 98 77 88 86 75 64 42 31 27 15 13 18 27 46 71 34 22 33
19 13 13 34 48 71 81 90 89 83 84 84 93 89 58 29 21 34 36 32 28 45 52 84 92 94 100 98 100 100 100 100 100 100 100 94 68 71 100 87 63 50 33 24 19 16 46 86 85 88 42 24 26 36
28 34 43 49 28 21 22 19 16 16 17 21 29 34 41 52 50 46 38 32 36 53 70 86 100 100 100 100 100 100 100 100 100 100 100 100 100 78 67 64 59 43 37 26 35 77 96 100 100 86 53 47 42 37
27 30 31 33 45 63 78 89 94 92 91 89 86 75 62 60 63 70 68 81 99 100 100 95 98 100 100 100 99 94 99 100 100 100 100 95 83 87 86 87 60 51 42 63 100 92 99 100 86 91 88 58 52 42
44 40 48 49 44 47 54 63 74 78 87 97 95 99 100 100 100 100 100 100 99 98 100 100 100 100 100 92 100 95 100 100 97 82 52 32 44 64 100 98 81 73 85 88 100 100 98 92 98 100 100 98 89 65
42 53 52 37 41 46 59 61 58 68 73 80 94 100 100 100 100 100 97 100 100 100 100 100 98 95 90 93 92 88 97 79 42 22 31 61 72 73 60 85 83 66 90 100 100 100 100 99 100 100 87 74 78 93
69 72 72 80 83 60 54 61 56 62 67 56 65 74 97 96 100 100 100 75 74 99 100 100 100 100 100 100 100 100 80 56 30 21 57 100 100 83 83 83 78 74 87 98 100 100 100 100 89 93 98 100 100 100
48 50 51 61 62 68 78 81 82 86 77 69 71 68 76 93 97 100 100 100 100 99 100 100 100 100 100 98 93 76 52 35 27 68 85 68 53 74 93 71 70 77 85 82 85 94 98 100 100 100 100 99 99 100
24 22 23 23 24 26 26 38 54 66 74 76 81 85 91 95 97 99 98 97 94 99 99 98 100 100 94 81 78 64 60 62 88 89 96 79 71 77 93 78 78 84 96 89 77 69 67 82 98 100 96 89 88 88
19 18 19 16 19 24 17 14 14 24 43 44 34 34 21 20 19 23 39 58 72 80 87 86 82 75 81 91 100 93 99 100 100 100 97 70 66 64 84 87 88 97 98 100 89 74 63 59 60 77 93 81 71 66
19 19 23 25 28 29 31 27 16 11 13 17 18 23 16 12 12 11 12 14 20 29 36 44 50 55 58 64 81 91 84 77 82 74 66 65 74 74 82 93 89 100 92 93 94 95 94 91 89 79 80 80 76 75
45 43 40 39 33 27 21 22 23 26 22 16 14 13 15 14 12 12 12 13 17 24 33 41 38 42 61 60 64 76 91 94 98 100 100 98 97 97 97 100 100 100 92 89 88 90 95 90 92 99 96 100 96 85
40 37 38 42 43 47 47 40 34 43 39 31 31 30 30 33 37 36 36 38 42 46 55 63 76 91 94 100 100 100 97 92 94 100 100 100 91 85 86 91 100 100 100 99 90 84 78 89 97 98 100 100 100 85
60 60 60 55 42 42 46 36 39 33 41 56 52 54 61 57 51 44 38 34 35 39 46 58 71 79 84 96 94 95 100 100 100 100 100 100 100 100 99 91 78 92 100 100 98 93 85 70 62 84 96 95 96 99
93 95 96 86 77 65 63 60 44 36 25 30 29 27 28 42 47 54 46 61 68 71 54 41 34 34 43 55 71 82 86 95 99 100 100 97 99 100 100 100 100 98 92 89 88 90 88 79 65 54 73 83 80 98
99 99 100 100 94 90 79 83 77 68 56 39 31 26 22 21 25 31 43 55 37 33 53 55 82 98 90 69 46 37 31 31 39 50 62 73 84 90 91 91 91 97 100 100 90 82 84 84 80 68 63 68 77 46
97 98 98 96 94 82 72 56 40 34 30 27 23 22 21 21 19 18 17 21 30 49 62 85 100 100 100 100 100 97 93 82 63 41 30 24 24 31 44 58 68 74 79 88 98 100 100 100 99 92 84 78 91 96
98 96 94 80 62 43 34 30 25 23 22 21 19 17 16 15 14 14 13 13 16 40 91 94 93 81 84 99 100 100 100 98 100 100 100 86 69 52 31 20 20 26 41 53 59 72 89 100 100 100 100 100 100 100
95 92 77 58 41 33 28 27 26 25 24 22 20 20 18 17 15 13 12 12 13 16 22 33 47 64 86 85 77 72 70 65 59 65 93 100 100 88 71 57 42 27 18 16 22 37 49 57 73 96 100 100 100 100
95 75 50 35 31 31 31 30 28 27 27 26 25 22 19 18 16 14 13 13 13 13 13 16 19 28 34 40 52 59 52 45 39 43 67 83 95 96 79 70 62 43 25 22 19 18 20 31 44 55 66 90 100 100
81 54 40 35 34 37 38 36 36 35 36 33 29 25 22 19 17 15 14 14 14 15 16 17 21 25 27 26 25 24 30 34 37 34 41 62 75 87 84 82 74 51 20 17 20 22 24 26 29 40 48 51 62 96
76 50 38 37 41 46 45 43 38 36 36 34 29 24 19 16 14 14 13 13 14 14 15 19 24 29 30 31 29 26 26 26 26 37 49 69 95 93 77 81 74 50 25 14 16 20 32 45 49 62 67 67 59 51
63 43 41 44 53 54 49 44 41 41 40 35 29 22 16 14 13 13 13 12 12 13 14 18 24 28 34 48 68 85 71 54 42 37 44 66 85 93 92 88 80 60 27 14 15 20 27 51 89 90 84 97 100 83
51 49 52 62 61 54 48 43 43 41 36 31 22 18 15 13 12 11 10 11 16 28 38 52 68 72 88 99 100 100 100 94 84 79 73 70 77 88 89 86 70 38 19 13 14 20 29 38 66 100 100 100 100 100
64 69 78 70 55 48 44 43 41 36 31 21 18 16 14 12 10 10 14 19 30 49 74 75 78 94 100 100 100 93 91 96 93 95 97 89 81 79 77 62 35 18 14 15 18 27 36 45 52 76 100 100 100 100
89 86 76 60 51 46 43 41 35 31 24 19 16 13 11 11 16 21 35 57 74 85 100 100 100 100 100 100 100 100 100 100 100 99 92 87 79 53 27 17 14 14 19 28 35 44 48 54 71 92 100 100 100 100

GFSWCAN_500_rhum_186.txt.gz
RH
100 99 100 100 97 95 91 87 82 77 71 61 48 39 31 21 16 17 30 42 53 58 43 49 43 44 47 43 37 28 24 40 99 100 92 100 98 99 85 78 46 66 100 100 92 93 99 95 100 99 100 97 98 62
98 93 92 88 79 72 67 60 54 49 42 32 22 16 12 13 16 21 52 64 71 66 40 48 68 61 60 53 46 47 50 46 89 100 100 100 98 84 51 55 63 70 100 65 86 98 87 100 100 99 100 68 29 16
78 67 55 44 40 41 40 30 24 20 14 10 8 10 15 22 26 28 65 82 69 59 41 65 70 66 58 55 82 64 58 78 61 100 100 97 69 92 71 64 58 100 86 100 84 88 75 82 100 99 88 17 11 10
26 20 15 12 10 12 12 10 8 7 6 6 9 16 20 19 21 42 68 81 81 68 60 66 64 49 55 68 78 50 51 61 58 97 94 63 72 84 92 93 94 100 100 100 100 100 100 100 100 60 29 11 9 10
10 8 8 7 6 5 4 4 3 3 5 8 19 37 43 28 28 65 90 98 99 82 58 49 43 58 84 62 53 63 58 42 42 66 60 58 68 56 55 92 100 100 100 100 100 100 89 87 57 30 20 17 13 13
8 9 7 5 4 6 3 3 3 5 12 33 56 83 61 100 100 100 100 100 92 73 46 28 59 55 32 53 55 30 26 34 50 59 55 58 68 50 68 98 100 100 95 71 77 52 43 35 28 24 18 13 11 11
9 9 6 5 12 20 7 3 3 6 27 89 98 99 100 100 100 100 100 88 72 40 20 37 47 57 67 82 66 60 71 80 80 72 70 96 59 53 95 100 97 100 82 77 52 39 36 29 20 14 15 26 49 39
12 12 11 9 13 25 35 28 19 14 13 20 48 79 100 100 100 100 78 40 18 22 46 71 85 85 85 91 98 100 100 99 92 97 52 44 55 80 100 100 100 98 85 60 42 33 23 18 16 20 39 95 83 90
21 19 19 27 30 13 14 43 69 92 99 100 100 100 99 69 30 16 23 32 38 57 71 72 76 83 94 96 99 100 100 100 100 96 80 69 80 98 81 83 86 74 54 41 33 25 27 44 59 74 84 88 95 54
23 27 36 44 47 60 65 34 20 20 22 25 30 35 41 45 47 54 60 65 71 77 90 100 100 100 100 100 100 100 100 100 100 100 96 100 100 97 90 86 76 57 34 23 20 56 95 100 88 92 96 98 100 85
23 32 31 37 34 37 57 64 78 85 95 99 99 100 100 100 100 100 100 100 100 100 100 100 100 100 100 100 100 100 84 99 100 99 100 92 87 100 60 58 71 62 41 49 57 66 91 100 100 96 85 90 78 64
38 38 37 44 38 41 37 47 46 52 53 59 65 75 95 100 96 100 100 100 97 90 91 93 97 100 100 100 95 100 100 100 92 92 84 63 46 44 64 98 67 47 52 64 69 77 93 88 92 100 94 99 100 100
52 59 66 62 46 45 47 44 42 45 52 52 52 45 67 67 78 87 67 58 55 63 78 88 84 92 91 100 100 100 100 78 57 26 24 34 66 82 89 84 50 66 62 66 77 100 99 100 100 100 95 100 100 100
36 41 41 43 50 64 63 59 59 54 45 37 45 39 32 48 68 70 67 58 59 58 58 74 84 83 92 98 98 96 84 59 40 33 47 100 100 100 96 59 84 76 63 65 64 94 99 100 95 95 98 97 100 100
32 31 29 22 19 17 20 26 50 64 65 62 52 54 60 63 66 82 93 96 89 77 77 89 96 100 100 98 94 92 73 58 45 83 95 87 99 92 76 63 64 86 82 86 81 82 83 76 83 90 96 100 100 100
22 21 19 21 18 20 22 16 14 14 28 49 54 54 55 56 53 59 63 70 77 84 86 88 88 87 92 97 90 93 88 79 74 77 87 93 100 95 71 65 55 60 84 80 78 72 83 78 66 57 62 91 93 83
24 23 24 22 21 22 22 23 25 20 11 12 18 28 34 28 19 16 14 15 18 28 50 65 75 77 77 80 88 100 98 100 100 89 77 58 65 88 95 74 59 61 78 88 89 87 75 83 84 78 65 56 61 81
35 37 37 39 39 38 32 25 24 24 24 15 12 10 11 12 14 16 14 12 11 11 12 16 25 37 50 53 66 83 89 95 85 86 100 99 84 86 93 96 99 90 87 91 100 100 79 77 87 88 87 90 82 70
49 54 49 45 41 40 42 40 33 47 40 35 33 31 31 30 29 32 32 31 31 29 26 27 35 41 55 62 67 68 74 81 92 100 99 97 100 98 93 94 95 94 87 89 91 100 100 92 81 80 85 88 90 89
84 85 85 81 69 58 59 59 45 38 39 38 35 42 48 52 56 54 51 48 44 38 38 41 50 60 68 77 90 100 100 100 99 99 100 100 99 100 99 91 97 100 100 95 96 98 100 100 96 84 74 73 84 88
97 97 98 98 97 89 86 80 66 69 58 37 36 28 28 27 32 37 43 62 74 76 72 74 65 52 47 50 61 82 93 100 100 100 100 100 100 100 100 100 99 98 100 100 99 91 83 98 100 100 98 80 71 64
97 96 93 95 95 94 90 81 68 54 35 26 23 21 19 19 19 20 27 32 34 36 38 65 97 100 100 100 100 90 75 62 50 44 41 42 45 56 68 79 88 96 99 98 97 99 100 88 85 93 99 99 90 71
96 96 96 98 95 86 61 48 35 30 27 25 24 24 22 20 19 18 16 16 16 18 31 63 97 70 92 100 100 100 100 100 100 100 100 100 96 80 56 41 32 31 40 63 81 90 94 99 98 94 90 84 88 89
100 96 94 87 76 55 39 33 29 28 28 27 26 25 24 24 23 22 21 20 17 14 16 32 82 100 100 100 100 100 100 100 100 100 100 100 100 100 100 100 94 83 60 34 25 27 42 68 86 98 100 100 100 100
100 100 91 79 61 46 34 32 33 35 34 32 32 32 33 30 29 25 24 22 21 18 16 18 31 73 100 100 87 79 76 78 88 93 94 86 84 98 99 90 92 94 85 78 74 56 30 21 25 46 65 86 100 100
100 97 87 72 56 43 36 36 39 41 40 38 36 33 32 30 29 28 25 21 18 17 17 17 18 22 31 34 39 45 45 45 38 41 44 42 42 41 32 70 85 96 87 80 76 74 66 47 27 19 22 42 58 76
100 100 91 65 53 43 38 42 47 50 50 46 43 39 35 34 33 30 27 22 18 16 15 15 15 15 16 18 19 23 28 26 20 18 22 29 31 29 18 18 30 55 83 95 82 68 65 56 35 27 22 23 36 49
100 100 93 75 54 43 43 48 60 64 59 50 45 43 40 40 36 29 24 20 18 16 15 14 14 14 15 15 17 21 24 29 36 35 29 24 18 20 23 22 20 28 54 76 81 79 73 52 26 21 25 27 29 38
100 99 82 64 53 51 57 75 78 68 53 48 47 43 41 39 31 24 20 17 14 12 11 12 15 17 21 28 34 36 40 50 52 60 61 71 93 85 32 18 22 39 51 68 86 82 65 40 22 19 28 38 43 52
92 86 83 78 71 78 92 90 77 62 55 52 49 44 40 33 25 20 16 13 12 11 12 14 24 46 72 91 100 100 100 100 93 65 49 60 68 73 80 78 68 60 64 74 85 82 68 33 17 20 30 67 84 94
91 92 95 95 98 97 95 83 66 56 52 49 47 43 37 28 21 16 13 11 11 12 14 20 39 57 68 82 86 85 94 100 99 91 78 67 72 81 90 92 88 83 75 73 79 64 35 19 16 21 33 68 100 100
90 96 99 100 99 87 71 59 54 52 50 46 44 39 30 23 18 13 11 13 19 34 40 53 72 87 95 98 98 96 92 86 91 95 100 100 99 96 90 81 79 77 65 52 42 27 18 17 22 34 44 52 69 100
86 88 85 75 65 58 53 51 49 52 55 52 39 32 25 19 14 12 12 14 17 22 43 80 96 100 100 100 100 100 100 100 99 100 100 100 100 98 92 83 61 31 21 18 18 22 28 35 45 52 59 68 95 100

GFSWCAN_500_rhum_189.txt.gz
RH
100 99 99 100 100 100 97 97 96 93 89 85 80 72 62 55 43 42 41 21 15 14 19 24 37 47 50 48 53 56 52 46 40 33 37 92 80 96 98 86 63 59 75 91 84 92 90 100 97 100 98 100 94 97
100 100 100 98 96 89 83 79 77 72 64 45 35 27 21 16 14 11 12 14 17 23 27 35 43 65 49 68 72 58 50 47 48 63 70 82 73 58 100 99 100 67 75 66 81 80 100 100 100 96 100 100 100 60
95 91 84 77 69 62 54 43 37 34 24 16 14 11 10 9 9 15 23 28 30 29 26 32 88 76 80 65 57 49 48 69 58 63 71 70 87 76 86 98 98 64 60 74 96 100 100 92 88 93 100 98 43 10
64 45 30 29 26 25 21 18 15 13 10 7 6 7 8 12 16 18 22 21 21 20 28 75 80 77 64 48 37 41 67 72 62 67 68 60 82 83 71 82 98 98 100 100 100 100 100 100 100 99 96 37 13 11
17 13 17 16 12 9 8 8 7 5 4 4 7 11 19 31 50 49 36 30 58 97 62 76 85 53 33 27 40 55 76 88 81 64 46 49 78 65 60 83 100 100 100 100 100 99 98 97 97 95 57 25 19 17
8 7 5 4 4 4 4 3 3 3 4 8 15 33 63 71 70 48 70 100 98 88 69 58 33 23 25 32 31 29 31 28 29 29 37 63 66 51 51 57 100 100 100 100 100 100 72 42 35 30 25 20 17 16
8 7 7 8 8 6 6 6 5 4 4 6 11 51 90 90 85 89 97 86 96 80 25 28 34 58 68 78 89 94 78 67 71 68 60 64 61 37 46 100 100 100 100 100 88 48 43 35 25 22 19 17 18 29
11 10 11 13 10 7 8 17 21 19 18 33 59 58 62 74 91 96 100 90 32 30 42 58 58 60 64 75 92 90 99 100 91 70 58 32 27 61 99 100 100 100 99 84 58 48 36 21 16 22 41 56 80 77
22 23 22 20 17 20 26 29 23 25 42 70 82 87 91 88 70 36 30 32 50 51 62 86 98 100 100 100 100 100 98 100 80 67 33 60 100 100 99 96 96 78 69 52 37 38 34 48 75 92 89 74 72 82
25 31 31 27 21 31 39 51 62 71 81 87 87 96 90 73 62 59 61 70 89 100 100 100 100 100 100 100 100 100 100 100 100 100 90 99 100 100 100 100 100 86 65 29 25 42 66 90 87 100 78 79 90 82
28 34 38 39 36 37 36 35 33 27 27 39 50 55 64 75 85 85 88 81 79 72 85 93 94 86 100 100 100 100 97 99 100 100 100 100 100 100 100 63 80 67 40 37 48 54 62 85 87 84 74 84 100 100
36 44 51 44 42 41 39 47 50 43 37 67 53 43 42 44 48 52 54 68 78 88 94 97 98 100 94 100 92 90 99 100 94 87 99 100 89 83 59 63 75 72 52 54 49 49 64 94 98 100 100 100 100 100
28 33 39 43 54 56 56 50 44 46 54 61 70 64 46 37 37 37 46 51 53 50 59 68 71 79 80 94 100 100 98 98 93 64 36 28 34 74 63 71 78 63 51 64 54 47 55 91 100 99 100 100 100 100
22 26 28 29 21 19 27 52 64 69 54 47 48 51 49 47 47 47 45 42 41 46 51 55 69 75 78 76 83 84 79 61 44 37 38 38 52 84 92 90 95 54 45 56 59 60 61 73 84 92 99 99 99 100
18 19 22 20 21 18 15 15 15 24 49 61 57 60 60 62 57 57 59 61 61 62 64 69 70 77 84 92 96 90 84 76 74 69 67 56 55 56 62 76 87 68 53 44 40 57 66 61 65 76 78 70 90 100
21 23 25 24 22 21 21 21 23 20 14 15 33 42 46 45 43 40 38 42 47 52 56 59 63 70 79 84 92 98 93 91 90 82 79 67 60 61 75 96 94 88 73 69 42 34 56 83 72 64 70 71 64 66
32 30 32 35 36 37 29 24 21 21 20 17 12 10 13 24 26 24 25 24 18 16 13 13 18 35 56 59 71 92 100 100 100 100 91 79 76 74 73 70 54 55 75 92 87 61 57 76 100 91 78 83 87 76
60 65 64 60 48 45 44 38 35 38 38 32 30 29 27 25 21 19 18 17 18 19 18 14 12 12 18 26 42 60 89 91 98 100 100 100 100 100 100 100 100 100 100 100 87 76 73 80 88 100 99 90 88 94
86 88 91 90 84 76 69 69 64 49 52 46 43 39 44 39 38 45 43 43 47 46 41 39 39 38 38 39 41 48 51 51 69 84 93 94 97 97 93 86 85 90 92 90 88 87 87 88 88 100 100 100 96 90
100 100 99 99 98 97 90 82 81 72 73 62 52 37 26 26 25 24 24 25 27 33 50 54 76 83 78 65 57 59 66 79 98 100 100 100 99 96 94 93 92 90 90 89 90 93 97 98 88 89 100 100 100 95
95 95 99 97 100 98 92 86 71 51 29 24 24 24 23 22 20 19 18 18 19 18 20 26 30 43 84 100 100 100 100 100 100 86 75 72 69 65 64 61 62 61 65 73 82 94 100 100 100 90 89 89 96 100
98 96 97 99 98 96 86 63 45 33 29 28 29 29 28 28 28 29 29 29 29 26 24 20 17 16 22 53 79 79 100 100 100 100 100 100 100 100 100 100 100 98 87 67 47 39 55 84 97 100 92 93 96 90
100 99 100 100 100 92 66 50 37 32 32 36 37 37 37 37 37 34 36 36 34 33 31 28 24 20 20 28 40 57 71 94 100 100 100 99 91 98 100 99 96 89 91 100 100 94 70 39 38 66 91 98 96 96
100 100 98 98 99 94 72 50 38 34 37 43 49 51 50 47 44 41 38 36 36 35 33 30 27 22 23 24 31 53 82 100 100 92 64 46 47 61 60 54 63 68 72 77 79 84 88 89 79 43 30 48 75 91
100 100 98 95 98 96 78 54 45 38 40 45 55 63 62 55 46 42 41 39 39 37 33 29 25 22 20 18 19 22 28 37 55 65 57 51 32 24 23 24 24 23 21 22 32 49 53 53 77 82 73 50 27 37
100 99 97 91 92 94 86 74 64 47 46 54 72 75 68 59 51 47 44 42 40 34 28 24 21 19 17 16 16 15 16 20 23 29 36 33 25 19 17 16 17 27 19 14 14 20 24 27 36 55 75 79 69 44
92 100 100 98 100 94 88 80 63 60 66 86 89 81 75 64 54 50 48 43 38 33 27 22 18 16 14 13 12 12 13 15 16 19 23 24 23 19 16 15 16 17 21 25 21 18 17 30 39 40 45 57 69 64
100 99 96 99 99 89 88 89 90 91 96 92 82 76 61 54 50 50 48 42 36 28 22 18 15 12 11 11 12 14 18 22 27 34 42 50 50 45 21 15 14 16 21 32 34 33 28 31 45 56 59 78 78 52
92 91 93 90 89 89 92 97 96 93 86 75 58 51 48 49 52 52 46 35 27 22 17 13 12 11 13 14 16 23 30 39 37 40 44 59 84 99 98 76 46 32 28 41 42 34 40 47 56 56 64 75 54 35
85 88 83 79 73 69 73 73 73 65 59 56 56 51 49 53 53 44 33 27 22 16 12 12 13 16 20 27 40 69 84 84 80 63 52 60 71 80 88 93 94 83 59 42 55 62 56 66 82 83 85 66 32 25
83 79 71 56 49 51 56 62 63 64 64 64 57 52 53 48 36 29 25 21 16 12 13 16 23 28 34 53 73 90 100 100 100 96 90 87 93 95 97 100 100 100 99 90 77 71 72 74 86 85 63 28 23 25
92 78 64 49 53 54 54 60 63 55 48 47 49 51 48 41 30 26 22 16 12 14 21 25 26 40 55 68 90 98 99 100 93 88 99 100 100 100 100 100 100 100 98 90 82 75 65 55 53 39 22 21 25 35
92 83 65 59 60 56 57 57 56 54 48 45 51 52 45 34 27 24 18 12 15 28 36 34 30 26 32 48 66 81 94 92 85 93 100 100 100 100 100 99 100 100 86 62 40 26 22 22 24 27 30 39 48 57

GFSWCAN_500_rhum_195.txt.gz
RH
98 98 98 100 98 96 94 98 98 97 95 80 64 62 63 62 54 50 50 50 56 60 61 56 45 32 23 21 20 19 19 24 35 41 52 77 82 78 68 58 39 27 99 90 68 50 57 98 100 100 100 100 100 100
96 96 98 98 96 99 87 63 59 57 53 57 51 45 44 43 42 42 42 39 35 28 22 18 15 16 18 17 18 17 22 40 55 77 78 72 61 47 43 30 36 53 96 81 78 51 85 100 100 100 100 100 95 100
97 97 98 97 81 63 53 46 40 34 32 29 30 29 27 26 23 19 16 14 12 11 12 13 16 16 15 13 15 29 56 68 78 60 31 29 32 48 48 34 64 84 99 87 91 99 100 100 100 99 100 100 100 93
83 78 65 50 39 33 27 25 24 24 24 21 18 15 12 9 9 8 8 9 10 12 14 19 18 12 17 36 58 70 54 27 26 36 39 52 71 58 38 46 80 99 100 94 100 100 100 100 93 100 100 100 100 92
63 60 44 30 20 16 14 13 12 11 10 7 6 6 5 5 5 9 14 17 18 19 16 35 24 43 58 48 25 31 49 64 68 44 41 42 42 41 38 68 99 100 100 100 100 100 100 100 100 82 67 58 57 58
27 23 18 14 12 12 10 6 4 2 2 3 3 4 5 7 9 9 10 17 32 38 34 40 35 27 35 56 69 73 96 92 81 51 52 50 43 37 53 97 93 100 100 100 100 99 100 92 63 64 33 29 25 22
12 9 9 7 5 3 3 4 4 4 5 5 6 6 6 8 12 28 56 46 42 39 27 34 50 63 81 94 98 94 94 70 67 52 47 45 43 71 97 96 100 100 100 100 100 91 61 31 24 18 14 16 16 31
5 4 4 4 4 4 5 6 6 8 11 12 9 17 23 30 42 51 45 35 32 63 84 79 77 74 77 72 87 95 98 76 62 45 42 64 70 92 98 100 100 100 100 100 87 46 28 23 21 18 15 22 49 59
5 6 6 6 7 6 7 8 9 12 16 20 23 28 28 29 30 31 46 54 50 60 86 100 100 100 100 100 100 100 49 44 38 28 71 95 100 100 100 100 99 100 100 100 66 35 26 25 25 27 43 60 72 65
8 8 9 9 10 10 12 13 17 19 24 27 30 35 36 37 42 41 49 64 74 79 89 90 96 100 100 100 100 100 97 98 100 100 100 100 100 100 94 88 86 75 84 62 46 41 41 42 45 38 54 90 99 100
11 12 12 14 14 13 12 17 19 24 29 29 30 28 28 35 37 46 50 59 66 73 70 72 76 88 81 82 94 100 100 99 77 98 98 96 96 82 94 87 80 78 82 81 78 40 31 43 48 48 61 82 94 99
12 13 16 17 17 17 14 13 23 26 23 27 31 31 28 25 24 28 31 36 39 46 47 53 55 53 67 73 80 81 99 99 100 92 98 65 80 84 91 71 47 58 54 65 69 36 28 27 28 34 50 60 70 78
12 13 16 16 18 18 17 17 14 17 32 32 27 24 28 33 34 34 23 24 28 31 31 34 48 50 58 66 68 76 77 87 90 92 97 97 76 57 44 42 56 76 78 75 66 61 57 45 38 34 25 22 29 46
16 18 21 24 26 26 23 18 17 16 14 16 27 37 33 31 34 39 36 37 39 38 38 36 43 51 50 55 60 59 61 67 64 74 80 73 73 70 70 67 66 70 71 60 61 60 61 66 70 61 52 48 42 26
31 34 38 41 41 41 41 39 34 29 24 21 17 16 19 32 41 45 49 49 44 42 41 43 43 42 46 48 48 50 53 52 56 68 75 83 86 83 81 86 84 79 72 68 63 61 60 57 58 61 50 44 41 38
49 51 56 62 65 66 66 63 60 58 52 48 43 37 30 23 18 16 19 26 28 32 30 25 23 23 24 24 23 22 25 27 35 51 67 74 69 71 73 75 80 81 79 80 75 74 78 70 60 64 66 66 62 48
62 67 70 74 77 78 79 80 78 75 76 77 76 71 73 59 60 55 46 42 45 45 44 41 39 39 36 30 28 31 45 31 20 22 21 18 33 47 56 68 71 67 67 66 68 67 70 76 77 75 77 73 70 58
75 77 81 84 84 84 84 81 83 82 77 74 70 60 40 36 29 25 24 23 22 21 20 20 20 22 31 30 44 54 62 68 66 62 58 52 52 63 75 94 99 100 100 99 98 95 86 75 68 64 62 63 67 70
88 90 91 91 89 91 91 94 86 85 80 64 44 34 31 30 33 32 31 32 33 34 33 32 30 30 30 28 26 24 24 26 29 41 65 74 84 89 94 97 94 87 87 86 83 79 73 67 64 63 60 59 59 65
100 100 98 98 98 98 96 99 95 92 81 61 54 40 34 36 40 45 50 54 56 55 51 48 44 42 40 38 36 34 32 28 24 24 22 24 28 35 41 60 88 100 100 100 100 98 96 91 85 81 76 75 73 65
100 100 100 100 100 100 100 100 100 100 89 79 78 58 42 41 44 46 51 67 89 91 79 67 58 53 51 49 47 45 42 38 34 31 29 27 25 27 30 29 38 52 72 88 83 78 88 84 77 75 71 60 61 73
100 100 100 100 100 100 100 100 100 100 100 100 93 86 73 73 75 60 60 75 100 100 94 78 65 59 57 55 53 49 45 42 39 36 31 28 26 25 41 43 37 40 46 50 47 49 55 54 46 42 40 32 29 36
100 100 100 100 100 100 100 100 100 99 100 100 100 100 99 92 90 87 92 100 98 77 59 54 54 58 59 59 55 53 50 45 39 34 30 27 24 23 22 24 32 51 66 56 37 24 21 24 20 18 18 19 20 16
87 97 98 100 100 100 98 94 100 100 100 100 100 95 92 95 95 92 78 71 66 62 60 56 56 60 62 61 58 50 42 35 31 27 24 22 20 18 18 18 20 21 20 19 21 21 21 19 17 15 15 15 15 16
71 89 94 100 97 97 92 97 100 100 99 94 88 94 94 71 63 64 65 55 50 48 50 56 59 58 53 47 40 34 30 26 22 19 17 15 14 14 15 15 16 17 16 14 13 13 13 13 12 12 11 12 12 13
61 68 91 93 86 92 94 95 91 89 89 90 89 78 71 64 62 58 59 59 55 49 52 55 54 51 42 36 31 28 24 19 16 15 16 17 19 20 20 19 20 26 27 21 16 14 13 12 11 11 11 11 11 12
56 62 79 84 90 92 88 94 96 95 95 86 79 78 76 74 71 69 66 68 54 49 55 56 49 40 34 31 26 20 16 15 17 24 31 34 34 33 30 31 36 59 73 61 60 51 30 20 18 17 14 15 14 12
55 65 75 86 92 94 98 100 100 100 100 95 86 87 86 84 78 71 74 66 53 54 52 46 38 33 30 22 16 14 20 34 45 46 44 39 37 38 41 56 71 82 96 95 89 86 67 44 45 48 47 39 28 17
62 66 71 86 95 98 99 100 100 100 100 98 94 89 82 70 57 58 67 54 53 54 46 38 33 27 19 13 14 29 44 47 46 43 38 30 33 62 79 74 85 100 100 100 100 96 97 87 89 95 95 77 47 34
60 66 68 83 90 92 92 95 94 95 96 93 87 77 59 48 46 54 53 53 56 48 38 32 26 18 12 17 45 56 47 32 28 26 23 24 28 28 45 66 90 100 100 100 100 100 100 100 100 100 100 92 72 63
50 57 64 63 68 77 82 77 80 84 83 82 76 63 54 49 44 52 50 54 48 38 32 27 18 12 15 41 47 34 35 31 30 32 40 44 37 36 56 80 96 100 100 100 100 100 100 100 100 100 100 100 99 99
63 63 62 62 69 67 67 76 81 83 78 76 72 66 62 48 44 47 47 48 40 33 28 20 13 12 38 49 30 23 20 30 50 59 70 65 64 78 83 92 98 100 100 100 100 100 100 98 91 86 85 83 84 87
72 70 70 71 69 70 73 73 74 74 72 72 75 72 63 48 47 46 47 48 40 33 25 17 11 24 51 34 20 22 43 60 75 93 96 96 88 84 93 96 100 99 89 80 79 75 68 59 51 45 43 41 42 49